Location: Goettingen
(51.5300°N, 9.9433°E)
Time: 17:26:32
(UTC+02:00)

ISS - Pass Details

Date: 13 May 2026
Orbit: 414 x 424 km, 51.6° (Epoch: 13 May)

Event Time Altitude Azimuth Distance (km) Brightness Sun altitude
Rises 21:42:59 0° 247° (WSW) 2,346 0.4 -5.9°
Reaches altitude 10° 21:45:04 10° 244° (WSW) 1,485 -0.6 -6.1°
Maximum altitude 21:48:23 64° 162° (SSE) 463 -3.8 -6.5°
Drops below altitude 10° 21:51:41 10° 81° (E) 1,492 -1.3 -6.9°
Sets 21:53:48 0° 78° (ENE) 2,358 -0.3 -7.2°
